Lid_Strength_Index
6 6 6 6 6 5 5 5 5 5 5 4 4 4 4 3 3 10 12 7 5 1 1 7 10 11 11 12 13 11 15 16 14 13 11 9 12 11 9 9 11 9 8 7 9
6 6 6 6 6 6 5 5 5 5 5 5 5 4 4 3 7 13 8 5 4 1 9 11 11 12 14 13 14 15 17 16 14 14 13 12 13 11 13 14 13 12 11 10 10
6 7 7 7 6 6 6 6 6 5 5 5 5 4 4 4 12 13 7 5 4 3 8 10 12 13 14 14 14 15 17 15 15 14 14 13 13 13 13 14 13 14 12 13 13
6 7 6 6 6 6 6 6 5 6 5 5 5 5 3 8 16 12 7 7 5 7 8 10 13 15 16 16 14 17 15 15 14 14 15 15 14 15 14 13 11 11 12 14 13
6 6 5 5 5 5 4 3 3 5 6 6 5 4 10 16 16 12 8 9 10 10 10 11 13 15 16 15 14 16 16 14 14 14 14 14 15 15 15 13 12 12 11 12 13
6 6 6 6 5 4 3 1 2 3 4 4 4 6 14 19 12 12 13 12 12 11 12 11 12 11 14 15 16 15 14 14 14 14 14 14 14 14 13 12 13 13 13 12 12
6 6 6 6 6 4 2 2 2 2 3 3 4 11 15 17 12 12 12 13 13 12 12 11 11 13 14 15 13 14 16 15 14 14 15 15 16 16 13 12 14 14 14 13 12
6 6 6 6 5 4 3 3 2 2 2 3 6 12 16 11 12 12 12 13 11 11 11 10 11 13 16 15 15 17 18 20 16 15 14 15 19 14 12 14 14 13 13 14 14
6 6 6 6 5 3 5 5 5 5 6 8 13 15 18 10 14 13 12 13 12 12 10 10 12 16 17 19 20 19 23 21 19 15 17 17 20 16 13 13 14 13 13 13 12
6 6 6 6 5 5 5 5 6 9 10 11 12 16 15 16 14 13 12 12 13 13 13 15 18 21 21 21 25 24 24 22 23 19 18 19 20 17 15 15 15 14 13 13 12
5 6 6 6 5 5 8 11 13 15 14 17 17 17 15 14 13 14 13 13 15 16 18 18 21 24 23 21 22 22 23 24 21 18 20 20 21 20 17 16 16 15 13 12 11
5 5 6 7 6 6 11 14 14 15 18 14 15 15 14 14 17 15 12 17 18 20 18 21 24 21 19 18 21 22 24 24 21 19 20 21 21 19 17 16 16 17 14 15 18
5 5 6 7 7 11 13 13 11 12 18 17 15 16 15 14 17 17 14 16 19 20 21 22 21 18 19 21 21 22 23 23 23 21 20 20 22 19 16 17 16 17 18 18 18
5 6 6 8 11 13 14 11 10 12 23 19 17 16 14 15 17 14 14 16 18 21 21 21 19 19 20 21 20 23 20 21 22 23 26 21 28 21 19 18 18 17 18 19 19
5 6 7 8 14 14 13 11 10 13 27 18 18 13 14 17 17 16 14 15 19 20 20 21 21 21 22 21 19 22 19 21 21 23 24 23 25 21 19 21 19 18 18 18 18
5 6 8 12 13 13 11 11 12 21 28 23 18 18 18 17 17 16 16 15 17 19 19 20 19 20 20 18 19 18 20 20 21 23 28 23 24 22 21 19 18 16 16 16 17
5 7 10 11 15 12 11 13 21 25 21 25 22 18 18 20 19 18 19 21 24 27 25 22 21 20 18 21 19 19 23 30 32 31 28 21 23 21 16 15 14 15 14 14 15
6 8 10 11 12 12 14 18 25 29 29 18 18 18 21 20 20 20 21 23 21 23 27 27 27 22 19 20 24 21 25 29 35 29 27 20 21 19 14 13 12 12 12 13 14
8 14 14 12 12 14 16 25 26 24 20 20 20 24 27 21 22 22 23 26 24 23 30 30 26 20 18 19 20 23 27 22 29 25 27 23 21 15 14 14 13 13 14 14 14
14 16 15 12 14 15 21 25 26 18 17 18 24 22 31 29 25 25 24 24 21 19 22 23 30 21 19 19 19 22 20 27 27 38 36 25 24 22 18 16 15 15 15 14 14
16 17 15 13 15 19 25 31 22 16 16 18 21 26 23 26 26 29 25 21 22 20 19 27 26 23 21 25 23 23 25 24 24 26 30 29 28 20 18 16 16 15 14 14 15
17 20 14 14 19 34 30 24 16 17 17 17 19 19 23 22 26 27 27 23 20 20 22 22 27 28 25 22 20 22 25 24 31 30 26 26 27 17 16 15 15 15 14 14 13
21 20 14 15 24 31 26 20 17 18 18 19 19 18 19 21 28 22 21 18 18 20 25 25 29 34 27 26 23 26 21 20 22 23 27 32 27 16 15 17 15 15 15 15 14
21 21 19 19 21 23 27 23 22 16 18 18 20 19 20 22 20 27 21 18 17 17 15 17 28 29 29 26 28 30 27 21 26 31 26 24 23 20 18 18 16 15 15 16 15
21 25 25 27 24 28 24 21 20 21 20 17 20 22 25 30 25 24 21 20 18 16 17 21 31 31 25 23 23 24 24 23 25 24 28 23 23 21 18 19 16 15 15 14 14
21 23 26 29 24 26 24 23 21 20 21 23 25 20 21 26 23 25 23 21 22 22 23 24 30 31 28 22 22 25 23 23 22 22 22 22 22 17 16 18 17 14 14 14 14
17 19 21 22 28 27 25 20 19 19 18 18 20 21 20 19 19 20 18 18 19 23 23 25 26 32 33 25 26 30 27 23 23 26 24 25 20 19 19 16 15 15 14 14 13